Regional Weather Roundup
Issued by NWS

Home | Current Version | Previous Version | Graphics & Text | Print | Product List | Glossary Off
Versions: 1 2 3 4 5 6 7 8 9 10 11 12 13 14 15 16 17 18 19 20 21 22 23 24 25 26 27 28 29 30 31 32 33 34 35 36 37 38 39 40 41 42 43 44 45 46 47 48 49 50

000
ASUS43 KFSD 110210
RWRSD

WEATHER ROUNDUP FOR SOUTH DAKOTA
NATIONAL WEATHER SERVICE SIOUX FALLS SD
800 PM CST SAT DEC 10 2016

NOTE: "FAIR" INDICATES FEW OR NO CLOUDS BELOW 12,000 FEET WITH NO
SIGNIFICANT WEATHER AND/OR OBSTRUCTIONS TO VISIBILITY.


SDZ001>005-009-010-012>017-110300-
NORTHWEST AND NORTH CENTRAL SOUTH DAKOTA

CITY           SKY/WX    TMP DP  RH WIND       PRES   REMARKS
BUFFALO          N/A      3  -2  79 SE9       29.70F WCI -12
FAITH            N/A      2   0  91 E14       29.82F WCI -16
MOBRIDGE       LGT SNOW   5  -2  72 MISG      29.92F
$$

SDZ012>016-024>037-041>051-057-063-072>074-110300-
SOUTHWEST AND SOUTH CENTRAL SOUTH DAKOTA

CITY           SKY/WX    TMP DP  RH WIND       PRES   REMARKS
RAPID CTY ARPT CLOUDY     5   2  87 E5        29.74R WCI  -4
PIERRE         CLOUDY    11   8  88 E17       29.87F WCI  -6
CUSTER         CLOUDY    35  26  69 W10G18    29.54F WCI  27
ELLSWORTH AFB  CLOUDY     5   1  85 E3        29.73
PHILIP         CLOUDY     8   7  95 NE9       29.82F FOG     WCI  -5
PINE RIDGE     CLOUDY     7   5  91 NE3       29.66F
SPEARFISH      FLURRIES   3   0  85 N5        29.70R WCI  -6
WINNER         CLOUDY    22  18  85 E17       29.78F WCI   8
$$

SDZ004>011-016>023-039-040-110300-
NORTHEAST SOUTH DAKOTA

CITY           SKY/WX    TMP DP  RH WIND       PRES   REMARKS
ABERDEEN       LGT SNOW   6  -1  73 NE15      30.06F WCI -12
WATERTOWN      LGT SNOW   6   2  83 E12G17    30.02R VSB 3/4 WCI  -9
BROOKINGS      LGT SNOW   9   6  88 E14       30.01F FOG     WCI  -7
SISSETON         N/A      5   1  83 E7        30.14S WCI  -7
$$

SDZ017-020-022-023-036>040-048>070-110300-
SOUTHEAST SOUTH DAKOTA

CITY           SKY/WX    TMP DP  RH WIND       PRES   REMARKS
SIOUX FALLS    FLURRIES  18  16  92 E13       30.00F WCI   5
HURON          FLURRIES  13  10  88 E15       29.98F WCI  -3
CHAMBERLAIN    CLOUDY    20  19  93 E15       29.86F WCI   6
MITCHELL       CLOUDY    19  16  88 SE15      29.97F WCI   5
YANKTON        CLOUDY    23  18  80 E13       29.96F WCI  11
$$

ABBREVIATIONS USED IN REMARKS
   TC - TEMPERATURE IN CELSIUS
  WCI - WIND CHILL INDEX
   HX - HEAT INDEX
  VSB - VISIBILITY





USA.gov is the U.S. government's official web portal to all federal, state and local government web resources and services.